YZ-1 R/B (43584 NORAD) Tracking and Keplerian Element Data

This shows tracking and keplerian element data for the satellite.

Feedback or suggestion? Click here.




ElementValue
Catalog43584
NameYZ-1 R/B
Epoch Orbit52
Epoch Day239.30176792
Epoch Year2018
RAAN279.9036
Inclination55.021
Eccentricity0.0030437
Argument of Perigee0.8731
Mean Anonmoly359.2144
Mean Motion1.78868387
Decay Rate2.4E-07
L11 43584U 18062D 18239.30176792 .00000024 00000-0 00000-0 0 9995
L22 43584 55.0210 279.9036 0030437 0.8731 359.2144 1.78868387 522



Live tracking and technical data element details for YZ-1 R/B (NORAD 43584). YZ-1 R/B can be tracked NOW for your location showing map with azimuth and elevation plus other details from your city location.







IsCatalogInMostPopularTable: catalog: 43584, numindb: 405
Update: records affected: 1



GetName: 43584 YZ-1 R/B

Hit Count: updated at: Sun, 28 May 2023 18:36:10 GMT